[[{"header":{"parameterUnit":"m.s-1","parameterCategory":1,"la1":30.2991,"la2":30.254,"lo1":-89.0895,"lo2":-89.0444,"dy":0.0017,"dx":0.0017,"nx":28,"ny":28,"refTime":"2024-07-02T21:00:00:Z","depth":0,"parameterNumber":2,"parameterNumberName":"U-component_of_WINDS"},"data":[0,0,0,0,0,0,0,0,0,0,0,0,0,0,0,0,0,0,0,0,0,0,0,0,0,0,0,0,0,0,0,0,0,0,0,0,0,0,0,0,0,0,0,0,0,0,0,0,0,0,0,0,0,0,0,0,0,0,-1.1047,-1.1046,0,-1.1036,-1.1036,-1.1035,-1.1032,-1.1032,-1.1032,-1.1032,-1.102,-1.102,-1.102,0,0,0,0,0,0,0,0,0,0,0,0,0,-1.1064,-1.1063,-1.1047,-1.1046,-1.1046,-1.1036,-1.1036,-1.1035,-1.1032,-1.1032,-1.1032,-1.1032,-1.102,-1.102,-1.102,0,0,0,0,0,0,0,0,0,0,0,0,0,-1.1055,-1.1063,-1.1047,-1.1043,-1.1043,-1.1036,-1.1036,-1.1035,-1.1032,-1.1032,-1.1032,-1.1032,-1.1021,-1.102,-1.1019,-1.1014,0,0,-1.1018,-1.1018,0,0,0,0,0,0,0,0,-1.1055,-1.1054,-1.1044,-1.1044,-1.1043,-1.1035,-1.1037,-1.1028,-1.1032,-1.1036,-1.1032,-1.1032,-1.1025,-1.1024,-1.1022,-1.1014,-1.1013,-1.1018,-1.1017,-1.1017,-1.1017,0,0,0,0,0,0,0,-1.1056,-1.1055,-1.1042,-1.1044,-1.1043,-1.1042,-1.1041,-1.1035,-1.103,-1.1036,-1.1036,-1.1034,-1.1025,-1.1023,-1.1022,-1.1013,-1.1018,-1.1017,-1.1017,-1.1017,-1.1,-1.1,0,0,0,0,0,0,-1.1057,-1.1055,-1.1043,-1.1042,-1.105,-1.1042,-1.1041,-1.1038,-1.103,-1.1029,-1.1034,-1.1034,-1.1023,-1.1022,-1.1021,-1.1015,-1.1017,-1.1017,-1.1016,-1.1,-1.1,-1.1,0,0,0,0,0,0,-1.1058,-1.1056,-1.1043,-1.1048,-1.1047,-1.1041,-1.1038,-1.1037,-1.1035,-1.1029,-1.1028,-1.1033,-1.1023,-1.1022,-1.1016,-1.1014,-1.1016,-1.1016,-1.1,-1.1,-1.1,-1.1002,0,0,0,0,0,0,-1.1058,-1.1056,-1.1054,-1.1048,-1.1046,-1.1038,-1.1038,-1.1037,-1.1034,-1.1034,-1.1028,-1.1027,-1.1023,-1.1017,-1.1016,-1.1014,-1.1015,-1.1,-1.1,-1.1,-1.1002,-1.1002,-1.1002,0,0,0,0,0,-1.1059,-1.1055,-1.1054,-1.1053,-1.1044,-1.1038,-1.1037,-1.1034,-1.1034,-1.1032,-1.1028,-1.1027,-1.1015,-1.1016,-1.1015,-1.1013,-1.1001,-1.1,-1.1,-1.1002,-1.1002,-1.1002,0,0,0,0,0,0,-1.1061,-1.1054,-1.1053,-1.1048,-1.1044,-1.1038,-1.1035,-1.1034,-1.1029,-1.1029,-1.1025,-1.1023,-1.1018,-1.1015,-1.1017,-1.1007,-1.1008,-1.1007,-1.101,-1.1009,-1.1009,-1.101,-1.1015,0,0,0,0,0,-1.1061,-1.1057,-1.1051,-1.1047,-1.1045,-1.104,-1.1038,-1.1035,-1.1031,-1.1029,-1.1025,-1.102,-1.1015,-1.1012,-1.1007,-1.1001,-1.1,-1.0999,-1.0999,-1.0999,-1.0998,-1.0995,-1.0995,-1.0999,-1.0999,-1.0999,0,0,-1.106,-1.1056,-1.1054,-1.1047,-1.1044,-1.1039,-1.1039,-1.1034,-1.1031,-1.1028,-1.1022,-1.1019,-1.1014,-1.1008,-1.1005,-1.1005,-1.0997,-1.0999,-1.0999,-1.0998,-1.0995,-1.0994,-1.0994,-1.0999,-1.0999,-1.0999,0,0,-1.1057,-1.1054,-1.105,-1.1046,-1.1041,-1.1038,-1.1037,-1.1032,-1.1029,-1.1024,-1.1022,-1.1017,-1.1009,-1.1005,-1.1002,-1.0998,-1.0997,-1.0997,-1.0996,-1.0993,-1.0992,-1.0992,-1.099,-1.099,-1.0996,-1.0996,-1.0996,0,-1.1057,-1.1051,-1.1048,-1.1043,-1.104,-1.1038,-1.1034,-1.1031,-1.1024,-1.1022,-1.1022,-1.1012,-1.1008,-1.1001,-1.1,-1.0998,-1.0997,-1.0997,-1.0993,-1.0992,-1.0992,-1.099,-1.099,-1.0996,-1.0996,-1.0996,-1.0996,0,-1.1051,-1.1047,-1.1044,-1.1038,-1.1035,-1.1031,-1.1027,-1.1024,-1.1022,-1.1019,-1.1013,-1.1008,-1.1003,-1.1001,-1.0999,-1.0994,-1.0994,-1.0994,-1.0994,-1.0992,-1.099,-1.0989,-1.0996,-1.0996,-1.0996,-1.0996,0,0,-1.1048,-1.1041,-1.104,-1.1038,-1.1032,-1.1028,-1.1024,-1.1019,-1.1016,-1.1012,-1.1008,-1.1001,-1.1001,-1.0997,-1.0995,-1.0992,-1.0989,-1.0992,-1.0992,-1.0991,-1.0983,-1.0983,-1.0983,-1.0988,-1.0988,-1.0988,-1.0983,0,-1.1045,-1.1037,-1.1034,-1.1028,-1.1024,-1.1022,-1.1018,-1.1014,-1.1011,-1.1007,-1.1004,-1.0999,-1.0999,-1.0997,-1.0994,-1.099,-1.0987,-1.099,-1.0984,-1.0984,-1.0985,-1.0982,-1.0982,-1.0978,-1.0983,-1.0983,-1.0982,0,-1.1039,-1.1035,-1.1028,-1.1023,-1.1021,-1.1018,-1.1013,-1.1009,-1.1005,-1.1003,-1.0999,-1.0997,-1.0992,-1.0993,-1.0986,-1.0988,-1.0985,-1.0983,-1.0983,-1.0982,-1.0983,-1.0981,-1.0977,-1.0976,-1.0981,-1.0982,-1.0982,0,-1.1038,-1.1031,-1.1026,-1.1024,-1.1018,-1.1015,-1.1013,-1.1008,-1.1005,-1.1001,-1.0999,-1.0993,-1.0991,-1.0987,-1.0983,-1.0984,-1.0976,-1.0977,-1.0975,-1.0975,-1.0973,-1.0973,-1.0968,-1.0971,-1.0971,-1.0971,-1.0971,0,-1.1034,-1.103,-1.1025,-1.1022,-1.1018,-1.1014,-1.101,-1.1007,-1.1003,-1.0999,-1.0997,-1.0993,-1.0989,-1.0985,-1.0982,-1.0977,-1.0975,-1.0973,-1.0973,-1.0974,-1.0974,-1.0972,-1.0972,-1.0971,-1.0971,-1.0971,-1.0971,0,-1.1032,-1.1029,-1.1023,-1.1018,-1.1016,-1.1013,-1.1009,-1.1006,-1.1003,-1.0998,-1.0997,-1.0992,-1.0987,-1.0983,-1.0976,-1.0975,-1.0969,-1.0968,-1.097,-1.097,-1.0968,-1.0968,-1.0962,-1.096,-1.0964,-1.0964,-1.0964,0,-1.1029,-1.1026,-1.1021,-1.1018,-1.1016,-1.1011,-1.1009,-1.1005,-1.1002,-1.0997,-1.0994,-1.0989,-1.0985,-1.0977,-1.0973,-1.0968,-1.0967,-1.0965,-1.0966,-1.0967,-1.0966,-1.0967,-1.0966,-1.0964,-1.0964,-1.0964,-1.0964,0,-1.1025,-1.1024,-1.102,-1.1015,-1.1012,-1.1008,-1.1004,-1.1002,-1.0998,-1.0995,-1.099,-1.0987,-1.098,-1.0975,-1.0969,-1.0966,-1.0964,-1.0964,-1.0963,-1.0964,-1.0965,-1.0964,-1.097,-1.0964,-1.0964,-1.0964,-1.0964,-1.0964,-1.1023,-1.102,-1.1016,-1.1011,-1.1008,-1.1005,-1.1001,-1.0998,-1.0994,-1.0989,-1.0987,-1.0982,-1.0977,-1.097,-1.0966,-1.0962,-1.0962,-1.0961,-1.0961,-1.096,-1.096,-1.0966,-1.0961,-1.0961,-1.0961,-1.0961,-1.0961,0,-1.1018,-1.1016,-1.1012,-1.1007,-1.1003,-1.1002,-1.0998,-1.0995,-1.0991,-1.0986,-1.0982,-1.0977,-1.0972,-1.0967,-1.0962,-1.0959,-1.0958,-1.0958,-1.0958,-1.0957,-1.0961,-1.0962,-1.0959,-1.0959,-1.0959,-1.0959,-1.0959,-1.0959,-1.1016,-1.1011,-1.1009,-1.1003,-1.1,-1.0995,-1.0993,-1.0989,-1.0986,-1.098,-1.0976,-1.0973,-1.0969,-1.0963,-1.0958,-1.0957,-1.0955,-1.0955,-1.0954,-1.0957,-1.0957,-1.0957,-1.0959,-1.0955,-1.0955,-1.0951,-1.0951,-1.0951]},{"header":{"parameterUnit":"m.s-1","parameterCategory":1,"la1":30.2991,"la2":30.254,"lo1":-89.0895,"lo2":-89.0444,"dy":0.0017,"dx":0.0017,"nx":28,"ny":28,"refTime":"2024-07-02T21:00:00:Z","depth":0,"parameterNumber":3,"parameterNumberName":"V-component_of_WINDS"},"data":[0,0,0,0,0,0,0,0,0,0,0,0,0,0,0,0,0,0,0,0,0,0,0,0,0,0,0,0,0,0,0,0,0,0,0,0,0,0,0,0,0,0,0,0,0,0,0,0,0,0,0,0,0,0,0,0,0,0,2.2642,2.2642,0,2.2662,2.2662,2.2663,2.2616,2.2615,2.2613,2.2612,2.263,2.2632,2.2633,0,0,0,0,0,0,0,0,0,0,0,0,0,2.256,2.2561,2.2642,2.2642,2.2642,2.2662,2.2662,2.2663,2.2616,2.2614,2.2613,2.2611,2.2629,2.2631,2.2634,0,0,0,0,0,0,0,0,0,0,0,0,0,2.2589,2.2562,2.2642,2.2621,2.262,2.2662,2.2662,2.2663,2.2617,2.2614,2.2612,2.261,2.2628,2.2631,2.2634,2.2696,0,0,2.2642,2.2644,0,0,0,0,0,0,0,0,2.2587,2.2592,2.2624,2.2623,2.2621,2.2634,2.264,2.2674,2.2617,2.2618,2.2612,2.2609,2.2633,2.2635,2.2644,2.2697,2.2697,2.2643,2.2644,2.2646,2.2646,0,0,0,0,0,0,0,2.2585,2.2591,2.265,2.2625,2.2623,2.2611,2.2612,2.2646,2.2637,2.2618,2.2614,2.2617,2.2632,2.2641,2.2644,2.2698,2.2643,2.2645,2.2647,2.2648,2.2802,2.2805,0,0,0,0,0,0,2.2586,2.259,2.2649,2.265,2.2599,2.2614,2.2616,2.2632,2.2637,2.2636,2.2619,2.2615,2.2638,2.2641,2.2644,2.2717,2.2646,2.2648,2.265,2.28,2.2803,2.2805,0,0,0,0,0,0,2.2585,2.2592,2.2648,2.2619,2.2625,2.2618,2.2637,2.2634,2.2643,2.2638,2.2636,2.2631,2.2636,2.264,2.2684,2.2717,2.2649,2.2652,2.2797,2.2801,2.2804,2.2863,0,0,0,0,0,0,2.2583,2.2592,2.2616,2.262,2.2627,2.2688,2.2639,2.2636,2.2649,2.2644,2.2649,2.2647,2.2635,2.268,2.2686,2.272,2.2654,2.2794,2.2799,2.2803,2.2858,2.2869,2.2877,0,0,0,0,0,2.258,2.2631,2.2617,2.2625,2.2657,2.269,2.2694,2.2679,2.2652,2.2675,2.2672,2.2647,2.2713,2.2684,2.2692,2.2726,2.2792,2.2797,2.2803,2.2854,2.2867,2.2877,0,0,0,0,0,0,2.2629,2.2631,2.2616,2.267,2.268,2.2682,2.2711,2.2692,2.271,2.2704,2.2684,2.2685,2.2732,2.2734,2.2702,2.2787,2.2747,2.2755,2.2784,2.2796,2.2805,2.2804,2.2657,0,0,0,0,0,2.2647,2.2675,2.2674,2.2722,2.2728,2.2719,2.2733,2.272,2.273,2.2734,2.2734,2.2743,2.2766,2.2781,2.2801,2.2859,2.2859,2.2886,2.2895,2.2903,2.291,2.294,2.2952,2.2823,2.2823,2.2823,0,0,2.2683,2.2687,2.2705,2.2732,2.2738,2.2767,2.2723,2.2754,2.2775,2.2738,2.2779,2.278,2.2789,2.2839,2.2862,2.2842,2.2945,2.291,2.2916,2.2918,2.2947,2.2959,2.297,2.2827,2.2826,2.2826,0,0,2.2763,2.2769,2.2809,2.2817,2.2828,2.2822,2.2832,2.2837,2.2836,2.2878,2.2851,2.2874,2.2914,2.2922,2.2931,2.3015,2.2992,2.3022,2.3071,2.3101,2.3111,2.312,2.315,2.3161,2.3028,2.3028,2.3028,0,2.2805,2.2848,2.2832,2.2867,2.2879,2.2848,2.2889,2.2897,2.2914,2.2922,2.29,2.295,2.2953,2.3006,2.3026,2.3035,2.3045,2.3021,2.3111,2.312,2.3128,2.3156,2.3168,2.3032,2.3031,2.3031,2.3031,0,2.29,2.293,2.2961,2.298,2.2996,2.3033,2.3022,2.304,2.3027,2.3023,2.3065,2.3069,2.309,2.3101,2.3088,2.3152,2.3139,2.3115,2.3075,2.3144,2.317,2.3181,2.3037,2.3036,2.3035,2.3034,0,0,2.3011,2.3021,2.3033,2.3041,2.3052,2.3074,2.311,2.3132,2.3147,2.316,2.3189,2.3224,2.3201,2.3212,2.3199,2.3225,2.3292,2.3197,2.3197,2.3215,2.3363,2.3381,2.3394,2.3278,2.328,2.3281,2.3362,0,2.309,2.3152,2.314,2.3201,2.3228,2.32,2.3231,2.324,2.3238,2.326,2.3257,2.3282,2.325,2.3256,2.3281,2.3279,2.3321,2.3273,2.3304,2.3305,2.3302,2.3408,2.3427,2.3503,2.3372,2.3374,2.3375,0,2.319,2.3208,2.3273,2.3279,2.329,2.3319,2.3338,2.336,2.337,2.3366,2.3379,2.3361,2.3396,2.3356,2.3404,2.3371,2.3383,2.3384,2.3386,2.3388,2.3344,2.3413,2.3527,2.3539,2.3391,2.339,2.3389,0,2.3265,2.3305,2.3349,2.3357,2.3366,2.3386,2.3391,2.3399,2.3413,2.3429,2.3438,2.3458,2.3469,2.3485,2.3473,2.3445,2.3523,2.3482,2.352,2.352,2.3537,2.3536,2.3655,2.3545,2.3545,2.3545,2.3545,0,2.3354,2.3394,2.3382,2.3409,2.3454,2.3439,2.3483,2.3484,2.3491,2.3517,2.3493,2.3518,2.3501,2.3525,2.3516,2.3556,2.3561,2.3559,2.3556,2.3561,2.3562,2.3569,2.3563,2.3548,2.3547,2.3547,2.3546,0,2.3445,2.3438,2.3484,2.3489,2.3492,2.3524,2.3528,2.3553,2.3549,2.3582,2.3589,2.3583,2.3609,2.3599,2.3627,2.3621,2.3673,2.3663,2.367,2.3668,2.3706,2.3703,2.3834,2.385,2.373,2.3731,2.3732,0,2.3502,2.3533,2.3542,2.3558,2.3565,2.3591,2.3606,2.3593,2.3609,2.3623,2.3646,2.367,2.3689,2.3732,2.373,2.3751,2.3741,2.3786,2.3744,2.3748,2.3742,2.374,2.3743,2.3794,2.3795,2.3796,2.3797,0,2.3605,2.36,2.3623,2.3645,2.3664,2.368,2.3694,2.3709,2.3696,2.3715,2.3742,2.3757,2.3786,2.3811,2.383,2.3833,2.3813,2.3811,2.3821,2.3826,2.3829,2.3828,2.3693,2.3808,2.3806,2.3806,2.3805,2.3805,2.368,2.3707,2.3717,2.3744,2.3753,2.3767,2.3791,2.3791,2.3814,2.3837,2.3827,2.3859,2.3868,2.3892,2.3898,2.3922,2.3905,2.3919,2.3923,2.3927,2.3932,2.3825,2.3926,2.3925,2.3925,2.3925,2.3925,0,2.3782,2.3788,2.3812,2.3834,2.3854,2.3835,2.385,2.3868,2.3896,2.3908,2.3927,2.3959,2.3982,2.3982,2.4004,2.4024,2.4015,2.403,2.4028,2.4029,2.3946,2.3935,2.4036,2.4036,2.4036,2.4036,2.4036,2.4036,2.3837,2.3881,2.3878,2.3926,2.3931,2.3963,2.3973,2.3985,2.3994,2.4031,2.4051,2.4051,2.4058,2.408,2.4101,2.4101,2.411,2.4128,2.4124,2.4046,2.4035,2.4025,2.4014,2.413,2.413,2.4205,2.4206,2.4206]}]]